| time (UTC) | temp F | wind direction | speed MPH | gust MPH | rain 1hr in | rain 24hr in | rain mn in | humidity % | barometer mb |
| 20260905113106 | 69 | 173 | 0.0 | 2.0 | 0.00 | 0.32 | 0.00 | 92 | 1012.5 |
| 20260905112557 | 69 | 236 | 0.0 | 2.0 | 0.00 | 0.32 | 0.00 | 92 | 1012.6 |
| 20260905112055 | 69 | 173 | 0.0 | 3.0 | 0.00 | 0.32 | 0.00 | 92 | 1012.6 |
| 20260905111601 | 69 | 264 | 2.0 | 3.0 | 0.00 | 0.32 | 0.00 | 92 | 1012.7 |
| 20260905111056 | 69 | 41 | 0.0 | 2.0 | 0.00 | 0.32 | 0.00 | 92 | 1012.6 |
| 20260905110555 | 69 | 309 | 0.0 | 2.0 | 0.00 | 0.32 | 0.00 | 92 | 1012.7 |
| 20260905110055 | 69 | 41 | 1.0 | 2.0 | 0.00 | 0.32 | 0.00 | 92 | 1012.8 |
| 20260905105555 | 69 | 30 | 1.0 | 3.0 | 0.00 | 0.32 | 0.00 | 92 | 1012.9 |
| 20260905105055 | 69 | 84 | 1.0 | 4.0 | 0.00 | 0.32 | 0.00 | 92 | 1012.8 |
| 20260905104609 | 69 | 218 | 1.0 | 6.0 | 0.00 | 0.32 | 0.00 | 92 | 1013.0 |
| 20260905104054 | 69 | 140 | 3.0 | 6.0 | 0.00 | 0.32 | 0.00 | 92 | 1013.2 |
| 20260905103554 | 69 | 236 | 2.0 | 6.0 | 0.00 | 0.32 | 0.00 | 92 | 1013.3 |
| 20260905103055 | 69 | 201 | 2.0 | 4.0 | 0.00 | 0.32 | 0.00 | 92 | 1013.3 |
| 20260905102553 | 69 | 41 | 1.0 | 6.0 | 0.00 | 0.32 | 0.00 | 92 | 1013.3 |
| 20260905102056 | 69 | 236 | 2.0 | 6.0 | 0.00 | 0.32 | 0.00 | 92 | 1013.4 |
| 20260905101553 | 69 | 208 | 1.0 | 6.0 | 0.00 | 0.32 | 0.00 | 92 | 1013.3 |
| 20260905101053 | 69 | 192 | 3.0 | 6.0 | 0.00 | 0.32 | 0.00 | 91 | 1013.5 |
| 20260905100553 | 69 | 241 | 1.0 | 3.0 | 0.00 | 0.32 | 0.00 | 91 | 1013.5 |
| 20260905100053 | 69 | 201 | 2.0 | 3.0 | 0.00 | 0.32 | 0.00 | 91 | 1013.4 |
| 20260905095552 | 69 | 248 | 0.0 | 3.0 | 0.00 | 0.32 | 0.00 | 91 | 1013.1 |
| 20260905095052 | 69 | 218 | 1.0 | 3.0 | 0.00 | 0.32 | 0.00 | 91 | 1013.1 |
| 20260905094552 | 69 | 240 | 1.0 | 3.0 | 0.00 | 0.32 | 0.00 | 91 | 1013.0 |
| 20260905094054 | 69 | 229 | 1.0 | 3.0 | 0.00 | 0.32 | 0.00 | 91 | 1012.8 |
| 20260905093555 | 69 | 201 | 0.0 | 2.0 | 0.00 | 0.32 | 0.00 | 91 | 1012.8 |
| 20260905093052 | 69 | 201 | 0.0 | 3.0 | 0.00 | 0.32 | 0.00 | 91 | 1012.6 |
| 20260905092553 | 69 | 100 | 0.0 | 3.0 | 0.00 | 0.32 | 0.00 | 91 | 1012.5 |
| 20260905092051 | 69 | 34 | 1.0 | 3.0 | 0.00 | 0.32 | 0.00 | 92 | 1012.4 |
| 20260905091551 | 69 | 67 | 1.0 | 3.0 | 0.00 | 0.32 | 0.00 | 91 | 1012.3 |
| 20260905091050 | 68 | 143 | 1.0 | 3.0 | 0.00 | 0.32 | 0.00 | 91 | 1012.3 |
| 20260905090550 | 68 | 119 | 0.0 | 3.0 | 0.00 | 0.32 | 0.00 | 91 | 1012.4 |
| 20260905090113 | 68 | 51 | 1.0 | 4.0 | 0.00 | 0.32 | 0.00 | 91 | 1012.4 |
| 20260905085550 | 68 | 103 | 1.0 | 4.0 | 0.00 | 0.32 | 0.00 | 91 | 1012.3 |
| 20260905085053 | 68 | 137 | 2.0 | 4.0 | 0.00 | 0.32 | 0.00 | 91 | 1012.3 |
| 20260905084550 | 68 | 201 | 1.0 | 3.0 | 0.00 | 0.32 | 0.00 | 91 | 1012.3 |
| 20260905084049 | 68 | 137 | 1.0 | 3.0 | 0.00 | 0.32 | 0.00 | 91 | 1012.3 |
| 20260905083550 | 68 | 173 | 0.0 | 3.0 | 0.00 | 0.32 | 0.00 | 91 | 1012.1 |
| 20260905083049 | 67 | 173 | 1.0 | 4.0 | 0.00 | 0.32 | 0.00 | 91 | 1011.9 |
| 20260905082549 | 67 | 122 | 1.0 | 4.0 | 0.00 | 0.32 | 0.00 | 91 | 1011.6 |
| 20260905082049 | 67 | 100 | 1.0 | 3.0 | 0.00 | 0.32 | 0.00 | 91 | 1011.4 |
| 20260905081548 | 67 | 97 | 1.0 | 2.0 | 0.00 | 0.32 | 0.00 | 91 | 1011.6 |
| 20260905081048 | 67 | 84 | 0.0 | 2.0 | 0.00 | 0.32 | 0.00 | 91 | 1011.7 |
| 20260905080546 | 67 | 130 | 1.0 | 2.0 | 0.00 | 0.32 | 0.00 | 90 | 1011.9 |
| 20260905080046 | 67 | 173 | 0.0 | 3.0 | 0.00 | 0.32 | 0.00 | 90 | 1011.9 |
| 20260905075546 | 68 | 130 | 1.0 | 3.0 | 0.00 | 0.32 | 0.00 | 90 | 1012.0 |
| 20260905075044 | 68 | 51 | 2.0 | 3.0 | 0.00 | 0.32 | 0.00 | 90 | 1012.1 |
| 20260905074547 | 67 | 67 | 0.0 | 2.0 | 0.00 | 0.32 | 0.00 | 90 | 1012.1 |
| 20260905074044 | 68 | 41 | 0.0 | 3.0 | 0.00 | 0.32 | 0.00 | 90 | 1012.2 |
| 20260905073544 | 68 | 156 | 1.0 | 3.0 | 0.00 | 0.32 | 0.00 | 90 | 1012.1 |
| 20260905073046 | 68 | 188 | 1.0 | 2.0 | 0.00 | 0.32 | 0.00 | 90 | 1012.1 |
| 20260905072545 | 68 | 218 | 0.0 | 2.0 | 0.00 | 0.32 | 0.00 | 90 | 1012.0 |
| 20260905072042 | 68 | 252 | 1.0 | 2.0 | 0.00 | 0.32 | 0.00 | 90 | 1012.2 |
| 20260905071542 | 68 | 218 | 0.0 | 2.0 | 0.00 | 0.32 | 0.00 | 90 | 1012.1 |
| 20260905071041 | 68 | 218 | 1.0 | 2.0 | 0.00 | 0.32 | 0.00 | 90 | 1012.2 |
| 20260905070541 | 68 | 229 | 0.0 | 2.0 | 0.00 | 0.32 | 0.00 | 90 | 1012.0 |
| 20260905070047 | 68 | 147 | 1.0 | 2.0 | 0.00 | 0.32 | 0.00 | 90 | 1011.9 |
| 20260905065542 | 68 | 192 | 0.0 | 2.0 | 0.00 | 0.32 | 0.00 | 90 | 1012.1 |
| 20260905065038 | 68 | 173 | 0.0 | 2.0 | 0.00 | 0.32 | 0.00 | 90 | 1012.2 |
| 20260905064538 | 69 | 147 | 0.0 | 2.0 | 0.00 | 0.32 | 0.00 | 90 | 1012.2 |
| 20260905064038 | 69 | 41 | 0.0 | 3.0 | 0.00 | 0.32 | 0.00 | 90 | 1012.2 |
| 20260905063536 | 69 | 84 | 0.0 | 3.0 | 0.00 | 0.32 | 0.00 | 90 | 1012.2 |
| 20260905063036 | 69 | 130 | 1.0 | 3.0 | 0.00 | 0.32 | 0.00 | 90 | 1012.1 |
| 20260905062535 | 69 | 156 | 1.0 | 3.0 | 0.00 | 0.32 | 0.00 | 90 | 1012.4 |
| 20260905062034 | 69 | 137 | 1.0 | 3.0 | 0.00 | 0.32 | 0.00 | 90 | 1012.5 |
| 20260905061538 | 69 | 356 | 0.0 | 3.0 | 0.00 | 0.32 | 0.00 | 90 | 1012.6 |
| 20260905061033 | 69 | 119 | 1.0 | 3.0 | 0.00 | 0.32 | 0.00 | 90 | 1012.7 |
| 20260905060531 | 69 | 41 | 0.0 | 2.0 | 0.00 | 0.32 | 0.00 | 90 | 1012.9 |
| 20260905060031 | 69 | 201 | 0.0 | 2.0 | 0.00 | 0.32 | 0.00 | 90 | 1012.9 |
| 20260905055530 | 69 | 84 | 0.0 | 3.0 | 0.00 | 0.32 | 0.00 | 90 | 1013.0 |
| 20260905055031 | 69 | 112 | 0.0 | 3.0 | 0.00 | 0.32 | 0.00 | 90 | 1013.1 |
| 20260905054533 | 69 | 218 | 1.0 | 3.0 | 0.00 | 0.32 | 0.00 | 90 | 1013.2 |
| 20260905054027 | 69 | 147 | 0.0 | 2.0 | 0.00 | 0.32 | 0.00 | 90 | 1013.1 |
| 20260905053526 | 69 | 112 | 1.0 | 3.0 | 0.00 | 0.32 | 0.00 | 90 | 1013.1 |
| 20260905053025 | 69 | 84 | 0.0 | 3.0 | 0.00 | 0.32 | 0.00 | 90 | 1013.2 |
| 20260905052526 | 69 | 147 | 1.0 | 3.0 | 0.00 | 0.32 | 0.00 | 90 | 1013.3 |
| 20260905052024 | 69 | 122 | 1.0 | 3.0 | 0.00 | 0.32 | 0.00 | 90 | 1013.3 |
| 20260905051523 | 69 | 112 | 1.0 | 2.0 | 0.00 | 0.32 | 0.00 | 90 | 1013.3 |
| 20260905051022 | 69 | 84 | 0.0 | 2.0 | 0.00 | 0.32 | 0.00 | 90 | 1013.4 |
| 20260905050521 | 69 | 130 | 0.0 | 2.0 | 0.00 | 0.32 | 0.00 | 90 | 1013.5 |
| 20260905050021 | 69 | 173 | 0.0 | 2.0 | 0.00 | 0.32 | 0.00 | 89 | 1013.4 |
| 20260905045523 | 69 | 147 | 0.0 | 2.0 | 0.00 | 0.32 | 0.00 | 89 | 1013.3 |
| 20260905045019 | 69 | 41 | 0.0 | 3.0 | 0.00 | 0.32 | 0.00 | 89 | 1013.3 |
| 20260905044525 | 69 | 173 | 0.0 | 4.0 | 0.00 | 0.32 | 0.00 | 89 | 1013.3 |
| 20260905044017 | 70 | 4 | 2.0 | 4.0 | 0.00 | 0.32 | 0.00 | 89 | 1013.5 |
| 20260905043517 | 70 | 15 | 1.0 | 4.0 | 0.00 | 0.32 | 0.00 | 89 | 1013.4 |
| 20260905043016 | 70 | 10 | 1.0 | 5.0 | 0.00 | 0.32 | 0.00 | 89 | 1013.4 |
| 20260905042516 | 69 | 4 | 2.0 | 5.0 | 0.00 | 0.32 | 0.00 | 89 | 1013.4 |
| 20260905042014 | 69 | 356 | 0.0 | 2.0 | 0.00 | 0.32 | 0.00 | 88 | 1013.4 |
| 20260905041514 | 69 | 281 | 1.0 | 2.0 | 0.00 | 0.32 | 0.00 | 88 | 1013.3 |
| 20260905041012 | 69 | 41 | 0.0 | 3.0 | 0.00 | 0.32 | 0.00 | 88 | 1013.4 |
| 20260905040511 | 69 | 226 | 1.0 | 3.0 | 0.00 | 0.32 | 0.00 | 88 | 1013.5 |
| 20260905040011 | 69 | 226 | 1.0 | 3.0 | 0.00 | 0.32 | 0.32 | 88 | 1013.4 |
| 20260905035510 | 69 | 173 | 0.0 | 2.0 | 0.00 | 0.32 | 0.32 | 88 | 1013.3 |
| 20260905035010 | 69 | 130 | 0.0 | 1.0 | 0.00 | 0.32 | 0.32 | 87 | 1013.3 |
| 20260905034510 | 69 | 41 | 0.0 | 2.0 | 0.00 | 0.32 | 0.32 | 88 | 1013.3 |
| 20260905034009 | 69 | 130 | 0.0 | 2.0 | 0.00 | 0.32 | 0.32 | 88 | 1013.4 |
| 20260905033509 | 69 | 116 | 0.0 | 2.0 | 0.00 | 0.32 | 0.32 | 88 | 1013.3 |
| 20260905033009 | 69 | 218 | 1.0 | 2.0 | 0.00 | 0.32 | 0.32 | 87 | 1013.4 |
| 20260905032509 | 69 | 208 | 1.0 | 2.0 | 0.00 | 0.32 | 0.32 | 87 | 1013.4 |
| 20260905032012 | 69 | 264 | 0.0 | 3.0 | 0.00 | 0.32 | 0.32 | 87 | 1013.5 |
| 20260905031509 | 69 | 188 | 1.0 | 3.0 | 0.00 | 0.32 | 0.32 | 87 | 1013.3 |
| 20260905031042 | 69 | 192 | 1.0 | 3.0 | 0.00 | 0.32 | 0.32 | 87 | 1013.2 |
| 20260905030511 | 70 | 41 | 0.0 | 2.0 | 0.00 | 0.32 | 0.32 | 87 | 1013.2 |
| 20260905030012 | 70 | 356 | 0.0 | 2.0 | 0.00 | 0.32 | 0.32 | 87 | 1013.3 |
| 20260905025508 | 70 | 173 | 1.0 | 2.0 | 0.00 | 0.32 | 0.32 | 87 | 1013.2 |
| 20260905025009 | 70 | 112 | 0.0 | 2.0 | 0.00 | 0.32 | 0.32 | 87 | 1013.3 |
| 20260905024507 | 70 | 112 | 0.0 | 1.0 | 0.00 | 0.32 | 0.32 | 87 | 1013.3 |
| 20260905024007 | 70 | 218 | 0.0 | 1.0 | 0.00 | 0.32 | 0.32 | 87 | 1013.4 |
| 20260905023507 | 70 | 41 | 0.0 | 1.0 | 0.00 | 0.32 | 0.32 | 87 | 1013.4 |
| 20260905023007 | 70 | 130 | 0.0 | 2.0 | 0.00 | 0.32 | 0.32 | 87 | 1013.4 |
| 20260905022510 | 70 | 130 | 0.0 | 3.0 | 0.00 | 0.32 | 0.32 | 87 | 1013.3 |
| 20260905022006 | 70 | 41 | 0.0 | 3.0 | 0.00 | 0.32 | 0.32 | 87 | 1013.4 |
| 20260905021507 | 70 | 319 | 0.0 | 3.0 | 0.00 | 0.32 | 0.32 | 87 | 1013.4 |
| 20260905021008 | 71 | 201 | 0.0 | 2.0 | 0.00 | 0.32 | 0.32 | 87 | 1013.4 |
| 20260905020506 | 71 | 319 | 0.0 | 2.0 | 0.00 | 0.32 | 0.32 | 87 | 1013.4 |
| 20260905020006 | 71 | 173 | 0.0 | 3.0 | 0.00 | 0.32 | 0.32 | 86 | 1013.4 |
| 20260905015506 | 71 | 51 | 1.0 | 3.0 | 0.00 | 0.32 | 0.32 | 86 | 1013.3 |
| 20260905015006 | 71 | 339 | 1.0 | 3.0 | 0.00 | 0.32 | 0.32 | 86 | 1013.5 |
| 20260905014506 | 71 | 356 | 1.0 | 3.0 | 0.00 | 0.32 | 0.32 | 86 | 1013.4 |
| 20260905014005 | 71 | 356 | 1.0 | 3.0 | 0.00 | 0.32 | 0.32 | 86 | 1013.4 |
| 20260905013505 | 71 | 18 | 1.0 | 3.0 | 0.00 | 0.32 | 0.32 | 86 | 1013.5 |
| 20260905013005 | 71 | 13 | 1.0 | 3.0 | 0.00 | 0.32 | 0.32 | 85 | 1013.5 |
| 20260905012505 | 71 | 130 | 0.0 | 2.0 | 0.00 | 0.32 | 0.32 | 85 | 1013.6 |
| 20260905012004 | 71 | 173 | 0.0 | 2.0 | 0.00 | 0.32 | 0.32 | 84 | 1013.6 |
| 20260905011504 | 71 | 23 | 1.0 | 2.0 | 0.00 | 0.32 | 0.32 | 84 | 1013.5 |
| 20260905011004 | 71 | 84 | 0.0 | 1.0 | 0.00 | 0.32 | 0.32 | 84 | 1013.5 |
| 20260905010504 | 71 | 173 | 0.0 | 2.0 | 0.00 | 0.32 | 0.32 | 84 | 1013.5 |
| 20260905010004 | 71 | 41 | 0.0 | 2.0 | 0.00 | 0.32 | 0.32 | 84 | 1013.4 |
| 20260905005503 | 71 | 218 | 0.0 | 2.0 | 0.00 | 0.32 | 0.32 | 83 | 1013.4 |
| 20260905005004 | 72 | 84 | 0.0 | 2.0 | 0.00 | 0.32 | 0.32 | 83 | 1013.3 |
| 20260905004700 | 72 | 84 | 0.0 | 2.0 | 0.00 | 0.32 | 0.32 | 83 | 1013.3 |
| 20260905004002 | 72 | 201 | 0.0 | 4.0 | 0.00 | 0.32 | 0.32 | 83 | 1013.3 |
| 20260905003502 | 72 | 229 | 2.0 | 4.0 | 0.00 | 0.32 | 0.32 | 83 | 1013.4 |
| 20260905003002 | 72 | 245 | 1.0 | 3.0 | 0.00 | 0.32 | 0.32 | 83 | 1013.4 |
| 20260905002601 | 72 | 218 | 0.0 | 3.0 | 0.00 | 0.32 | 0.32 | 82 | 1013.4 |
| 20260905002002 | 73 | 264 | 1.0 | 3.0 | 0.00 | 0.32 | 0.32 | 83 | 1013.4 |
| 20260905001502 | 73 | 229 | 1.0 | 2.0 | 0.00 | 0.32 | 0.32 | 82 | 1013.3 |
| 20260905001001 | 73 | 290 | 0.0 | 1.0 | 0.00 | 0.32 | 0.32 | 82 | 1013.3 |
| 20260905000502 | 73 | 41 | 0.0 | 1.0 | 0.00 | 0.32 | 0.32 | 82 | 1013.4 |
| 20260905000001 | 73 | 356 | 0.0 | 2.0 | 0.00 | 0.40 | 0.32 | 82 | 1013.4 |
| 20260904235601 | 73 | 84 | 0.0 | 2.0 | 0.00 | 0.40 | 0.32 | 82 | 1013.4 |
| 20260904235103 | 74 | 356 | 0.0 | 2.0 | 0.00 | 0.40 | 0.32 | 82 | 1013.3 |
| 20260904234602 | 74 | 41 | 0.0 | 2.0 | 0.00 | 0.40 | 0.32 | 82 | 1013.4 |
| 20260904234059 | 74 | 356 | 0.0 | 2.0 | 0.00 | 0.40 | 0.32 | 82 | 1013.4 |
| 20260904233559 | 74 | 130 | 0.0 | 2.0 | 0.00 | 0.40 | 0.32 | 81 | 1013.5 |
| 20260904233100 | 74 | 218 | 1.0 | 2.0 | 0.00 | 0.40 | 0.32 | 81 | 1013.5 |
| 20260904232559 | 74 | 160 | 0.0 | 2.0 | 0.00 | 0.40 | 0.32 | 82 | 1013.6 |
| 20260904232058 | 74 | 173 | 0.0 | 2.0 | 0.00 | 0.40 | 0.32 | 81 | 1013.8 |
| 20260904231559 | 74 | 356 | 0.0 | 4.0 | 0.00 | 0.40 | 0.32 | 81 | 1013.6 |
| 20260904231059 | 74 | 264 | 0.0 | 4.0 | 0.00 | 0.40 | 0.32 | 81 | 1013.2 |
| 20260904230559 | 74 | 130 | 2.0 | 4.0 | 0.00 | 0.40 | 0.32 | 81 | 1013.1 |
| 20260904225600 | 74 | 130 | 0.0 | 7.0 | 0.00 | 1.27 | 0.32 | 80 | 1013.6 |
| 20260904225059 | 74 | 84 | 0.0 | 7.0 | 0.00 | 1.27 | 0.32 | 81 | 1013.4 |
| 20260904224558 | 74 | 356 | 0.0 | 3.0 | 0.00 | 1.27 | 0.32 | 81 | 1013.4 |
| 20260904224056 | 74 | 326 | 1.0 | 10.0 | 0.00 | 1.27 | 0.32 | 81 | 1013.4 |
| 20260904223556 | 75 | 291 | 1.0 | 10.0 | 0.00 | 1.27 | 0.32 | 81 | 1013.5 |
| 20260904223056 | 75 | 279 | 2.0 | 7.0 | 0.00 | 1.27 | 0.32 | 82 | 1013.3 |
| 20260904222555 | 75 | 173 | 1.0 | 3.0 | 0.00 | 1.27 | 0.32 | 82 | 1013.2 |
| 20260904222055 | 75 | 173 | 1.0 | 6.0 | 0.00 | 1.27 | 0.32 | 82 | 1013.1 |
| 20260904221557 | 75 | 300 | 2.0 | 6.0 | 0.00 | 1.27 | 0.32 | 82 | 1013.0 |
| 20260904221055 | 75 | 147 | 0.0 | 3.0 | 0.00 | 1.27 | 0.32 | 83 | 1013.1 |
| 20260904220558 | 75 | 173 | 0.0 | 5.0 | 0.00 | 1.27 | 0.32 | 84 | 1013.0 |
| 20260904220053 | 75 | 23 | 1.0 | 5.0 | 0.00 | 1.46 | 0.32 | 84 | 1013.0 |
| 20260904215554 | 75 | 173 | 0.0 | 3.0 | 0.00 | 1.46 | 0.32 | 84 | 1012.9 |
| 20260904215052 | 75 | 84 | 0.0 | 3.0 | 0.00 | 1.46 | 0.32 | 84 | 1012.7 |
| 20260904214601 | 75 | 160 | 1.0 | 5.0 | 0.00 | 1.46 | 0.32 | 85 | 1012.6 |
| 20260904214050 | 75 | 173 | 1.0 | 5.0 | 0.00 | 1.46 | 0.32 | 84 | 1012.7 |
| 20260904213550 | 75 | 264 | 1.0 | 4.0 | 0.00 | 1.46 | 0.32 | 85 | 1012.5 |
| 20260904213049 | 75 | 250 | 1.0 | 5.0 | 0.00 | 1.46 | 0.32 | 85 | 1012.5 |
| 20260904212547 | 75 | 201 | 1.0 | 6.0 | 0.00 | 1.46 | 0.32 | 86 | 1012.3 |
| 20260904212047 | 74 | 204 | 2.0 | 6.0 | 0.00 | 1.46 | 0.32 | 86 | 1012.2 |
| 20260904211551 | 74 | 152 | 2.0 | 5.0 | 0.00 | 1.46 | 0.32 | 87 | 1012.3 |
| 20260904211046 | 74 | 210 | 2.0 | 5.0 | 0.00 | 1.46 | 0.32 | 87 | 1012.2 |
| 20260904210545 | 75 | 192 | 2.0 | 5.0 | 0.00 | 1.46 | 0.32 | 88 | 1012.1 |
| 20260904210045 | 75 | 247 | 2.0 | 5.0 | 0.00 | 1.46 | 0.32 | 89 | 1012.0 |
| 20260904205547 | 74 | 245 | 1.0 | 5.0 | 0.00 | 1.46 | 0.32 | 89 | 1011.8 |
| 20260904205042 | 74 | 208 | 1.0 | 5.0 | 0.00 | 1.46 | 0.32 | 89 | 1011.8 |
| 20260904204543 | 74 | 173 | 1.0 | 5.0 | 0.00 | 1.46 | 0.32 | 89 | 1011.6 |
| 20260904204041 | 74 | 140 | 2.0 | 7.0 | 0.00 | 1.46 | 0.32 | 90 | 1011.5 |
| 20260904203539 | 74 | 130 | 3.0 | 7.0 | 0.00 | 1.46 | 0.32 | 90 | 1011.7 |
| 20260904203038 | 74 | 215 | 2.0 | 9.0 | 0.00 | 1.46 | 0.32 | 91 | 1011.8 |
| 20260904202535 | 74 | 218 | 4.0 | 10.0 | 0.00 | 1.46 | 0.32 | 91 | 1011.8 |
| 20260904202034 | 73 | 218 | 4.0 | 10.0 | 0.00 | 1.46 | 0.32 | 91 | 1011.9 |
| 20260904201533 | 73 | 217 | 2.0 | 10.0 | 0.00 | 1.46 | 0.32 | 92 | 1012.0 |
| 20260904201033 | 73 | 248 | 4.0 | 10.0 | 0.00 | 1.46 | 0.32 | 91 | 1012.1 |
| 20260904200533 | 73 | 241 | 3.0 | 10.0 | 0.00 | 1.46 | 0.32 | 92 | 1012.3 |
| 20260904200028 | 73 | 186 | 4.0 | 13.0 | 0.00 | 1.53 | 0.32 | 93 | 1012.3 |
| 20260904195527 | 73 | 189 | 5.0 | 13.0 | 0.00 | 1.53 | 0.32 | 93 | 1012.5 |
| 20260904195025 | 73 | 213 | 7.0 | 11.0 | 0.00 | 1.53 | 0.32 | 93 | 1012.7 |
| 20260904194530 | 73 | 206 | 5.0 | 9.0 | 0.00 | 1.53 | 0.32 | 93 | 1012.8 |
| 20260904194023 | 73 | 229 | 2.0 | 7.0 | 0.00 | 1.53 | 0.32 | 93 | 1013.0 |
| 20260904193522 | 73 | 218 | 1.0 | 6.0 | 0.00 | 1.53 | 0.32 | 93 | 1013.1 |
| 20260904193022 | 73 | 222 | 2.0 | 7.0 | 0.00 | 1.53 | 0.32 | 93 | 1013.1 |
| 20260904192521 | 73 | 230 | 1.0 | 8.0 | 0.00 | 1.53 | 0.32 | 93 | 1013.0 |
| 20260904192024 | 72 | 184 | 2.0 | 9.0 | 0.00 | 1.53 | 0.32 | 93 | 1013.1 |
| 20260904191520 | 72 | 233 | 5.0 | 10.0 | 0.00 | 1.53 | 0.32 | 93 | 1013.5 |
| 20260904191023 | 72 | 247 | 4.0 | 10.0 | 0.00 | 1.53 | 0.32 | 93 | 1013.4 |
| 20260904190522 | 72 | 218 | 2.0 | 7.0 | 0.01 | 1.53 | 0.32 | 93 | 1013.6 |
| 20260904190018 | 72 | 223 | 3.0 | 8.0 | 0.01 | 1.53 | 0.32 | 93 | 1013.7 |
| 20260904185517 | 72 | 234 | 4.0 | 11.0 | 0.01 | 1.53 | 0.32 | 94 | 1013.7 |
| 20260904185019 | 72 | 279 | 4.0 | 13.0 | 0.02 | 1.53 | 0.32 | 93 | 1013.9 |
| 20260904184521 | 72 | 257 | 6.0 | 13.0 | 0.02 | 1.53 | 0.32 | 93 | 1013.6 |
| 20260904184015 | 72 | 202 | 7.0 | 12.0 | 0.02 | 1.53 | 0.32 | 94 | 1013.6 |
| 20260904183517 | 71 | 201 | 3.0 | 9.0 | 0.02 | 1.53 | 0.32 | 93 | 1013.4 |
| 20260904183013 | 71 | 186 | 2.0 | 12.0 | 0.02 | 1.53 | 0.32 | 93 | 1013.1 |
| 20260904182511 | 71 | 194 | 6.0 | 12.0 | 0.02 | 1.53 | 0.32 | 93 | 1013.1 |
| 20260904182011 | 71 | 255 | 3.0 | 10.0 | 0.02 | 1.53 | 0.32 | 93 | 1013.7 |
| 20260904181519 | 71 | 190 | 3.0 | 10.0 | 0.02 | 1.53 | 0.32 | 93 | 1014.0 |
| 20260904181012 | 71 | 218 | 3.0 | 9.0 | 0.02 | 1.53 | 0.32 | 93 | 1013.6 |
| 20260904180513 | 71 | 173 | 4.0 | 8.0 | 0.01 | 1.52 | 0.31 | 93 | 1014.3 |
| 20260904180027 | 71 | 231 | 3.0 | 7.0 | 0.01 | 1.52 | 0.31 | 93 | 1014.8 |
| 20260904175510 | 72 | 229 | 2.0 | 14.0 | 0.01 | 1.52 | 0.31 | 93 | 1015.2 |
| 20260904175009 | 72 | 309 | 3.0 | 14.0 | 0.00 | 1.51 | 0.30 | 93 | 1015.1 |
| 20260904174509 | 72 | 252 | 7.0 | 13.0 | 0.00 | 1.51 | 0.30 | 94 | 1015.4 |
| 20260904174009 | 72 | 257 | 5.0 | 8.0 | 0.00 | 1.51 | 0.30 | 94 | 1015.5 |
| 20260904173508 | 72 | 274 | 3.0 | 9.0 | 0.02 | 1.51 | 0.30 | 93 | 1015.5 |
| 20260904173010 | 72 | 264 | 4.0 | 9.0 | 0.07 | 1.51 | 0.30 | 93 | 1015.4 |
| 20260904172506 | 71 | 248 | 4.0 | 9.0 | 0.08 | 1.51 | 0.30 | 93 | 1015.2 |
| 20260904172005 | 71 | 356 | 3.0 | 8.0 | 0.08 | 1.51 | 0.30 | 93 | 1015.2 |
| 20260904171512 | 71 | 173 | 1.0 | 5.0 | 0.08 | 1.51 | 0.30 | 93 | 1015.3 |
| 20260904171002 | 71 | 103 | 2.0 | 7.0 | 0.08 | 1.51 | 0.30 | 93 | 1015.4 |
| 20260904170505 | 71 | 305 | 3.0 | 7.0 | 0.08 | 1.51 | 0.30 | 93 | 1015.5 |
| 20260904170002 | 71 | 331 | 2.0 | 6.0 | 0.08 | 1.51 | 0.30 | 93 | 1015.6 |
| 20260904165503 | 71 | 152 | 1.0 | 4.0 | 0.08 | 1.51 | 0.30 | 93 | 1015.7 |
| 20260904165101 | 71 | 10 | 2.0 | 4.0 | 0.08 | 1.51 | 0.30 | 93 | 1015.7 |
| 20260904164617 | 71 | 326 | 2.0 | 4.0 | 0.08 | 1.51 | 0.30 | 93 | 1015.5 |
| 20260904164058 | 71 | 319 | 1.0 | 9.0 | 0.08 | 1.51 | 0.30 | 93 | 1015.5 |
| 20260904163558 | 71 | 34 | 3.0 | 9.0 | 0.07 | 1.50 | 0.28 | 93 | 1015.6 |
| 20260904163058 | 71 | 326 | 1.0 | 6.0 | 0.02 | 1.45 | 0.24 | 93 | 1016.0 |
| 20260904162558 | 71 | 309 | 1.0 | 4.0 | 0.00 | 1.43 | 0.22 | 93 | 1015.7 |
| 20260904162058 | 71 | 156 | 1.0 | 7.0 | 0.00 | 1.43 | 0.22 | 93 | 1015.7 |
| 20260904161605 | 71 | 356 | 2.0 | 7.0 | 0.00 | 1.43 | 0.22 | 93 | 1015.7 |
| 20260904161057 | 71 | 58 | 2.0 | 6.0 | 0.00 | 1.43 | 0.22 | 93 | 1015.8 |
| 20260904160557 | 71 | 15 | 2.0 | 8.0 | 0.00 | 1.43 | 0.22 | 93 | 1015.9 |
| 20260904160057 | 71 | 331 | 3.0 | 8.0 | 0.00 | 1.43 | 0.22 | 93 | 1016.0 |
| 20260904155556 | 71 | 317 | 5.0 | 8.0 | 0.00 | 1.43 | 0.22 | 93 | 1016.1 |
| 20260904155053 | 71 | 335 | 3.0 | 6.0 | 0.00 | 1.43 | 0.22 | 93 | 1016.0 |
| 20260904154553 | 71 | 23 | 3.0 | 7.0 | 0.00 | 1.43 | 0.22 | 93 | 1016.0 |
| 20260904154050 | 71 | 324 | 3.0 | 6.0 | 0.00 | 1.43 | 0.22 | 93 | 1015.8 |
| 20260904153549 | 71 | 329 | 2.0 | 6.0 | 0.01 | 1.43 | 0.22 | 94 | 1015.6 |
| 20260904153056 | 71 | 338 | 4.0 | 6.0 | 0.02 | 1.43 | 0.22 | 94 | 1015.3 |
| 20260904152546 | 71 | 316 | 1.0 | 3.0 | 0.02 | 1.43 | 0.22 | 93 | 1015.1 |
| 20260904152046 | 71 | 331 | 1.0 | 4.0 | 0.03 | 1.43 | 0.22 | 93 | 1014.8 |
| 20260904151548 | 71 | 41 | 1.0 | 9.0 | 0.03 | 1.43 | 0.22 | 93 | 1014.6 |
| 20260904151044 | 71 | 205 | 1.0 | 10.0 | 0.04 | 1.43 | 0.22 | 93 | 1014.6 |
| 20260904150543 | 70 | 116 | 4.0 | 10.0 | 0.06 | 1.43 | 0.22 | 94 | 1014.0 |
| 20260904150042 | 70 | 142 | 4.0 | 7.0 | 0.07 | 1.43 | 0.22 | 94 | 1014.5 |
| 20260904145541 | 69 | 84 | 2.0 | 4.0 | 0.07 | 1.43 | 0.22 | 93 | 1014.9 |
| 20260904145040 | 69 | 69 | 2.0 | 4.0 | 0.08 | 1.43 | 0.22 | 93 | 1015.1 |
| 20260904144538 | 69 | 41 | 1.0 | 4.0 | 0.08 | 1.43 | 0.22 | 93 | 1015.2 |
| 20260904144038 | 69 | 41 | 0.0 | 4.0 | 0.08 | 1.43 | 0.22 | 93 | 1015.2 |
| 20260904143537 | 69 | 290 | 1.0 | 4.0 | 0.07 | 1.42 | 0.21 | 93 | 1015.2 |
| 20260904143037 | 69 | 137 | 0.0 | 4.0 | 0.07 | 1.41 | 0.20 | 93 | 1015.1 |
| 20260904142538 | 69 | 15 | 1.0 | 5.0 | 0.08 | 1.41 | 0.20 | 93 | 1015.2 |
| 20260904142039 | 69 | 84 | 2.0 | 6.0 | 0.10 | 1.40 | 0.19 | 93 | 1015.2 |
| 20260904141535 | 69 | 218 | 2.0 | 7.0 | 0.17 | 1.40 | 0.19 | 93 | 1015.3 |
| 20260904141034 | 69 | 257 | 4.0 | 7.0 | 0.18 | 1.39 | 0.18 | 93 | 1015.3 |
| 20260904140536 | 69 | 245 | 2.0 | 5.0 | 0.16 | 1.37 | 0.16 | 93 | 1015.2 |
| 20260904140037 | 69 | 236 | 2.0 | 6.0 | 0.15 | 1.36 | 0.15 | 93 | 1015.1 |
| 20260904135535 | 69 | 227 | 2.0 | 8.0 | 0.15 | 1.36 | 0.15 | 93 | 1015.2 |
| 20260904135034 | 69 | 236 | 4.0 | 9.0 | 0.14 | 1.35 | 0.14 | 93 | 1015.4 |
| 20260904134542 | 69 | 228 | 5.0 | 10.0 | 0.14 | 1.35 | 0.14 | 93 | 1015.4 |
| 20260904134033 | 69 | 229 | 6.0 | 10.0 | 0.14 | 1.35 | 0.14 | 93 | 1015.4 |
| 20260904133531 | 69 | 208 | 5.0 | 11.0 | 0.14 | 1.35 | 0.14 | 93 | 1015.2 |
| 20260904133044 | 69 | 198 | 6.0 | 11.0 | 0.13 | 1.34 | 0.13 | 93 | 1015.4 |
| 20260904132529 | 69 | 242 | 5.0 | 12.0 | 0.12 | 1.33 | 0.12 | 93 | 1015.4 |
| 20260904132029 | 69 | 243 | 4.0 | 12.0 | 0.09 | 1.30 | 0.09 | 93 | 1015.6 |
| 20260904131527 | 69 | 309 | 4.0 | 12.0 | 0.01 | 1.22 | 0.01 | 93 | 1015.4 |
| 20260904131026 | 69 | 233 | 4.0 | 10.0 | 0.00 | 1.21 | 0.00 | 93 | 1014.8 |
| 20260904130527 | 69 | 240 | 3.0 | 10.0 | 0.00 | 1.21 | 0.00 | 93 | 1014.6 |
| 20260904130026 | 69 | 236 | 3.0 | 12.0 | 0.00 | 1.21 | 0.00 | 93 | 1014.6 |
| 20260904125525 | 69 | 213 | 6.0 | 12.0 | 0.00 | 1.21 | 0.00 | 93 | 1014.7 |
| 20260904125053 | 69 | 223 | 5.0 | 10.0 | 0.00 | 1.21 | 0.00 | 93 | 1014.8 |
| 20260904124556 | 69 | 208 | 5.0 | 10.0 | 0.00 | 1.21 | 0.00 | 93 | 1014.8 |
| 20260904124051 | 69 | 238 | 5.0 | 10.0 | 0.00 | 1.21 | 0.00 | 93 | 1014.8 |
| 20260904123551 | 69 | 181 | 3.0 | 6.0 | 0.00 | 1.21 | 0.00 | 93 | 1014.5 |
| 20260904123051 | 68 | 210 | 2.0 | 5.0 | 0.00 | 1.21 | 0.00 | 93 | 1014.5 |
| 20260904122549 | 68 | 188 | 2.0 | 5.0 | 0.00 | 1.21 | 0.00 | 93 | 1014.5 |
| 20260904122049 | 68 | 130 | 1.0 | 6.0 | 0.00 | 1.21 | 0.00 | 93 | 1014.5 |
| 20260904121547 | 68 | 103 | 2.0 | 6.0 | 0.00 | 1.21 | 0.00 | 93 | 1014.3 |
| 20260904121048 | 68 | 142 | 2.0 | 5.0 | 0.00 | 1.21 | 0.00 | 93 | 1014.4 |
| 20260904120549 | 68 | 130 | 1.0 | 4.0 | 0.00 | 1.21 | 0.00 | 93 | 1014.5 |
| 20260904120057 | 67 | 130 | 1.0 | 4.0 | 0.00 | 1.21 | 0.00 | 93 | 1014.4 |
| 20260904115546 | 67 | 130 | 1.0 | 3.0 | 0.00 | 1.21 | 0.00 | 93 | 1014.3 |
| 20260904115045 | 67 | 112 | 1.0 | 4.0 | 0.00 | 1.21 | 0.00 | 93 | 1014.5 |
| 20260904114551 | 67 | 309 | 2.0 | 4.0 | 0.00 | 1.21 | 0.00 | 93 | 1014.4 |
| 20260904114044 | 66 | 112 | 2.0 | 4.0 | 0.00 | 1.21 | 0.00 | 93 | 1014.3 |
| 20260904113544 | 66 | 100 | 1.0 | 2.0 | 0.00 | 1.21 | 0.00 | 93 | 1014.5 |